This is the latest recevied weather packets stored in our database for station/object KE6AFE. If no packets are shown the sender has not sent any weather packets the latest 10 day(s).
| Time | Temp. | Humidity | Pressure | Rain* | Wind** | Luminosity | Snow |
|---|---|---|---|---|---|---|---|
| 1778121922 | 22.22° C | 53% | 1018.9 hPa | 0 mm | - | - | - |
| 1778121312 | 22.78° C | 52% | 1018.8 hPa | 0 mm | - | - | - |
| 1778120702 | 22.78° C | 51% | 1018.8 hPa | 0 mm | - | - | - |
| 1778120092 | 23.33° C | 50% | 1018.7 hPa | 0 mm | - | - | - |
| 1778119482 | 23.89° C | 50% | 1018.7 hPa | 0 mm | - | - | - |
| 1778118872 | 23.89° C | 49% | 1018.6 hPa | 0 mm | - | - | - |
| 1778118262 | 23.89° C | 49% | 1018.6 hPa | 0 mm | - | - | - |
| 1778117653 | 24.44° C | 48% | 1018.7 hPa | 0 mm | - | - | - |
| 1778117042 | 24.44° C | 47% | 1018.8 hPa | 0 mm | - | - | - |
| 1778116432 | 24.44° C | 47% | 1018.7 hPa | 0 mm | - | - | - |
| 1778115822 | 25° C | 46% | 1018.7 hPa | 0 mm | - | - | - |
| 1778115212 | 25° C | 46% | 1018.7 hPa | 0 mm | - | - | - |
| 1778114602 | 25.56° C | 45% | 1018.7 hPa | 0 mm | - | - | - |
| 1778113992 | 25.56° C | 44% | 1018.6 hPa | 0 mm | - | - | - |
| 1778113382 | 26.11° C | 44% | 1018.7 hPa | 0 mm | - | - | - |
| 1778112772 | 26.11° C | 43% | 1018.6 hPa | 0 mm | - | - | - |
| 1778112162 | 26.11° C | 43% | 1018.7 hPa | 0 mm | - | - | - |
| 1778111552 | 26.11° C | 44% | 1018.6 hPa | 0 mm | - | - | - |
| 1778110942 | 26.11° C | 43% | 1018.7 hPa | 0 mm | - | - | - |
| 1778110332 | 26.67° C | 42% | 1018.8 hPa | 0 mm | - | - | - |
| 1778109722 | 26.11° C | 43% | 1018.8 hPa | 0 mm | - | - | - |
| 1778109112 | 26.11° C | 42% | 1018.9 hPa | 0 mm | - | - | - |
| 1778108502 | 26.11° C | 42% | 1019 hPa | 0 mm | - | - | - |
| 1778107892 | 26.11° C | 43% | 1019.2 hPa | 0 mm | - | - | - |
| 1778107282 | 26.11° C | 44% | 1019.2 hPa | 0 mm | - | - | - |
* Rain latest hour (hover to see other rain measurements)
** Current wind speed in m/s (hover to see current wind gust speed)